Weather History for Ingolstadt, Germany

Change the Weather History Date:

Tuesday, February 5, 2013

  Actual Average (EDMA) Record (EDMA)
Temperature  
Mean Temperature 40 °F -  
Max Temperature 46 °F 40 °F 60 °F (2004)
Min Temperature 33 °F 26 °F -4 °F (2012)
Degree Days  
Heating Degree Days 26    
Moisture  
Dew Point 34 °F    
Average Humidity 86    
Maximum Humidity 93    
Minimum Humidity 61    
Precipitation  
Precipitation 0.00 in - - ()
Sea Level Pressure  
Sea Level Pressure 29.64 in    
Wind  
Wind Speed 10 mph ()    
Max Wind Speed 25 mph    
Max Gust Speed 39 mph    
Visibility 5.2 miles    
Events Rain , Snow    
Averages and records for this station are not official NWS values.
T = Trace of Precipitation, MM = Missing Value Source: Averaged Metar Reports

Daily Weather History Graph

Daily Weather History Graph

Search for Another Location

Airport:

Trip Planner

Search our weather history database for the weather conditions in past years. The results will help you decide how hot, cold, wet, or windy it might be!

Date:

Astronomy

Feb. 05, 2013 Rise Set
Actual Time 7:37 AM CET 5:18 PM CET
Civil Twilight 7:04 AM CET 5:52 PM CET
Nautical Twilight 6:26 AM CET 6:29 PM CET
Astronomical Twilight 5:50 AM CET 7:06 PM CET
Moon 3:10 AM CET (2/5) 12:10 PM CET (2/5)
Length of Visible Light 10h 47m
Length of Day
9h 40m
Waning Crescent, 29% of the Moon is Illuminated
Feb 5
Waning Crescent
Feb 10
New
Feb 17
First Quarter
Feb 25
Full
Mar 4
Last Quarter

Hourly Weather History & Observations

Time (CET) Temp. Windchill Dew Point Humidity Pressure Visibility Wind Dir Wind Speed Gust Speed Precip Events Conditions
5:20 AM 39.2 °F 34.2 °F 37.4 °F 93% 29.77 in 5.0 mi WNW 6.9 mph - N/A   Light Drizzle
6:20 AM 39.2 °F 33.6 °F 35.6 °F 87% 29.77 in 6.2 mi WNW 8.1 mph - N/A   Light Drizzle
7:20 AM 37.4 °F 32.8 °F 35.6 °F 93% 29.74 in 6.2 mi WSW 5.8 mph - N/A Rain Light Rain
8:20 AM 37.4 °F 32.8 °F 35.6 °F 93% 29.71 in 5.6 mi SSW 5.8 mph - N/A Rain Light Rain
9:20 AM 37.4 °F 30.8 °F 35.6 °F 93% 29.68 in 5.0 mi WNW 9.2 mph - N/A Rain Rain
10:20 AM 39.2 °F 32.0 °F 35.6 °F 87% 29.68 in 6.2 mi WNW 11.5 mph - N/A Rain Light Rain
11:07 AM 39.2 °F 32.5 °F 37.4 °F 93% 29.68 in 6.2 mi WSW 10.4 mph - N/A   Mostly Cloudy
11:20 AM 39.2 °F 32.5 °F 37.4 °F 93% 29.68 in 6.2 mi WSW 10.4 mph - N/A   Mostly Cloudy
11:40 AM 41.0 °F 34.7 °F 37.4 °F 87% 29.65 in 6.2 mi WSW 10.4 mph - N/A   Scattered Clouds
12:20 PM 44.6 °F 38.1 °F 37.4 °F 76% 29.62 in 6.2 mi WSW 13.8 mph - N/A   Partly Cloudy
1:20 PM 44.6 °F 36.1 °F 32.0 °F 61% 29.59 in 6.2 mi West 21.9 mph 33.4 mph N/A   Mostly Cloudy
2:20 PM 46.4 °F 39.8 °F 33.8 °F 62% 29.59 in 6.2 mi West 16.1 mph - N/A   Light Small Hail Showers
2:34 PM 42.8 °F 34.8 °F 33.8 °F 70% 29.59 in 3.1 mi West 17.3 mph - N/A   Small Hail
2:48 PM 35.6 °F 23.4 °F 32.0 °F 87% 29.62 in 2.5 mi WNW 25.3 mph 39.1 mph N/A Rain , Snow Light Snow Showers
2:55 PM 35.6 °F 24.2 °F 32.0 °F 87% 29.62 in - WNW 21.9 mph 36.8 mph N/A Rain , Snow Small Hail
3:07 PM 35.6 °F 25.2 °F 32.0 °F 87% 29.62 in 2.8 mi West 18.4 mph - N/A Rain , Snow Light Snow Showers
3:20 PM 35.6 °F 25.9 °F 32.0 °F 87% 29.62 in - West 16.1 mph - N/A Rain Rain
3:25 PM 35.6 °F 25.9 °F 32.0 °F 87% 29.59 in 3.1 mi West 16.1 mph - N/A Rain , Snow Light Snow Showers
4:20 PM 35.6 °F 27.5 °F 32.0 °F 87% 29.59 in 6.2 mi West 11.5 mph - N/A   Mostly Cloudy
4:30 PM 35.6 °F 28.0 °F 32.0 °F 87% 29.59 in 6.2 mi West 10.4 mph - N/A   Mostly Cloudy
5:20 PM 33.8 °F 25.8 °F 32.0 °F 93% 29.56 in 5.0 mi SW 10.4 mph - N/A Rain , Snow Light Snow Showers
6:20 PM 33.8 °F 27.0 °F 30.2 °F 87% 29.56 in 6.2 mi West 8.1 mph - N/A   Mostly Cloudy
7:20 PM 33.8 °F 27.0 °F 32.0 °F 93% 29.56 in 2.5 mi SW 8.1 mph - N/A Snow Light Snow Showers